1520398800.47,34579,7.88,71474.3,-5.45,-7.05,-7.15,0,*59
1520398801.72,34580,7.88,71472.5,-5.45,-7.01,-7.19,0,*57
1520398802.97,34581,7.88,71476.0,-5.45,-7.01,-7.15,0,*5A
1520398804.24,34582,7.88,71476.5,-5.45,-7.01,-7.05,0,*58
1520398805.51,34583,7.88,71470.8,-5.45,-6.93,-7.05,0,*53
1520398806.78,34584,7.88,71470.3,-5.45,-6.93,-7.05,0,*54
1520398808.05,34585,7.88,71470.8,-5.45,-7.01,-7.05,0,*5F
1520398809.3,34586,7.88,71468.8,-5.45,-7.01,-7.15,0,*5D
1520398810.53,34587,7.88,71472.0,-5.43,-6.97,-7.11,0,*50
1520398811.8,34588,7.88,71472.8,-5.45,-7.01,-7.05,0,*52
1520398813.05,34589,7.88,71470.5,-5.45,-7.01,-7.15,0,*52
1520398814.31,34590,7.88,71474.0,-5.45,-7.01,-7.15,0,*5A
1520398815.56,34591,7.88,71470.8,-5.43,-6.97,-7.01,0,*56
1520398816.82,34592,7.88,71474.8,-5.45,-7.01,-7.05,0,*59
1520398818.09,34593,7.88,71472.5,-5.45,-7.01,-7.05,0,*58
1520398819.36,34594,7.88,71470.5,-5.45,-7.01,-7.05,0,*5F
1520398820.63,34595,7.88,71474.5,-5.45,-7.01,-7.05,0,*5E
1520398821.9,34596,7.88,71470.0,-5.45,-7.05,-7.05,0,*59
1520398823.16,34597,7.88,71470.0,-5.45,-7.05,-7.05,0,*58
1520398824.43,34598,7.88,71470.8,-5.45,-7.05,-7.05,0,*57
1520398825.7,34599,7.88,71470.3,-5.45,-7.01,-7.05,0,*52
1520398826.97,34600,7.88,71468.5,-5.45,-7.01,-7.05,0,*51
1520398828.23,34601,7.88,71472.3,-5.45,-7.01,-7.05,0,*50
1520398829.49,34602,7.88,71474.3,-5.45,-7.01,-7.15,0,*52
1520398830.75,34603,7.88,71474.0,-5.45,-7.01,-7.05,0,*52
1520398832.01,34604,7.88,71474.3,-5.45,-7.01,-7.15,0,*54
1520398833.26,34605,7.88,71474.8,-5.45,-7.05,-7.15,0,*51
1520398834.52,34606,7.88,71472.5,-5.45,-7.05,-7.05,0,*53
1520398835.79,34607,7.88,71468.0,-5.45,-7.01,-7.05,0,*56
1520398837.07,34608,7.88,71470.5,-5.45,-7.01,-7.01,0,*5D
1520398838.34,34609,7.88,71472.8,-5.45,-7.01,-7.01,0,*5C
1520398839.62,34610,7.88,71472.5,-5.45,-6.93,-7.01,0,*5E
1520398840.84,34611,7.88,71474.3,-5.43,-6.89,-7.01,0,*52
1520398842.09,34612,7.88,71474.3,-5.45,-6.89,-7.01,0,*57
1520398843.34,34613,7.88,71472.0,-5.45,-6.81,-6.93,0,*54
1520398844.59,34614,7.88,71470.8,-5.45,-6.81,-7.01,0,*59
1520398845.82,34615,7.88,71470.0,-5.45,-6.81,-6.89,0,*59
1520398847.08,34616,7.88,71468.8,-5.45,-6.81,-6.93,0,*51
1520398848.33,34617,7.88,71470.0,-5.45,-6.81,-7.01,0,*5A
1520398849.58,34618,7.88,71470.0,-5.45,-6.77,-6.93,0,*56
1520398850.83,34619,7.88,71472.3,-5.45,-6.81,-7.01,0,*54
1520398852.08,34620,7.88,71470.5,-5.45,-6.89,-6.93,0,*5C
1520398853.33,34621,7.88,71470.3,-5.45,-6.89,-6.93,0,*5D
1520398854.59,34622,7.88,71470.3,-5.45,-6.81,-6.93,0,*56
1520398855.84,34623,7.88,71470.8,-5.45,-6.77,-6.93,0,*5E
1520398857.09,34624,7.88,71472.5,-5.45,-6.77,-6.93,0,*59
1520398858.34,34625,7.88,71470.5,-5.45,-6.77,-7.01,0,*52
1520398859.6,34626,7.88,71474.3,-5.45,-6.81,-7.01,0,*58
1520398860.85,34627,7.88,71474.3,-5.45,-6.81,-7.01,0,*59
1520398862.1,34628,7.88,71474.3,-5.45,-6.89,-7.01,0,*5E
1520398863.34,34629,7.88,71468.3,-5.45,-6.89,-7.05,0,*5B
1520398864.59,34630,7.88,71468.8,-5.45,-6.81,-7.05,0,*5B
1520398865.83,34631,7.88,71468.5,-5.45,-6.89,-7.05,0,*52
1520398867.07,34632,7.88,71466.8,-5.45,-6.89,-7.05,0,*51
1520398868.32,34633,7.88,71470.0,-5.45,-6.81,-7.05,0,*58
1520398869.56,34634,7.88,71468.5,-5.45,-6.89,-7.05,0,*57
1520398870.79,34635,7.88,71468.8,-5.45,-6.89,-7.15,0,*57
1520398872.04,34636,7.88,71464.8,-5.45,-6.89,-7.01,0,*51
1520398873.29,34637,7.88,71474.3,-5.45,-6.81,-7.01,0,*58
1520398874.49,34638,7.88,71470.5,-5.43,-6.77,-6.89,0,*59
1520398875.74,34639,7.88,71466.8,-5.45,-6.81,-7.01,0,*56
1520398877.0,34640,7.88,71466.3,-5.45,-6.81,-7.01,0,*58
1520398878.25,34641,7.88,71466.3,-5.45,-6.77,-6.93,0,*5A
1520398879.5,34642,7.88,71466.8,-5.45,-6.81,-7.01,0,*5A
1520398880.73,34643,7.88,71466.8,-5.45,-6.81,-6.89,0,*5A
1520398881.96,34644,7.88,71466.5,-5.45,-6.89,-6.89,0,*55
1520398883.18,34645,7.88,71470.3,-5.45,-6.81,-6.89,0,*5C
1520398884.42,34646,7.88,71468.8,-5.45,-6.81,-6.81,0,*57
1520398885.61,34647,7.88,71468.0,-5.43,-6.73,-6.85,0,*59
1520398886.81,34648,7.88,71466.8,-5.43,-6.73,-6.77,0,*5B
1520398888.04,34649,7.88,71464.8,-5.45,-6.77,-6.77,0,*58
1520398889.26,34650,7.88,71468.0,-5.43,-6.63,-6.73,0,*57
1520398890.48,34651,7.88,71470.0,-5.45,-6.69,-6.81,0,*57
1520398891.71,34652,7.88,71468.8,-5.45,-6.77,-6.77,0,*52
1520398892.93,34653,7.88,71472.0,-5.45,-6.69,-6.77,0,*5C
1520398894.15,34654,7.88,71468.3,-5.45,-6.69,-6.69,0,*54
1520398895.37,34655,7.88,71472.3,-5.45,-6.69,-6.69,0,*55
1520398896.59,34656,7.88,71470.8,-5.45,-6.69,-6.77,0,*59
1520398897.83,34657,7.88,71470.5,-5.45,-6.63,-6.77,0,*52
1520398899.05,34658,7.88,71470.0,-5.43,-6.63,-6.77,0,*5B
1520398900.27,34659,7.88,71468.0,-5.45,-6.55,-6.69,0,*56
1520398901.52,34660,7.88,71470.8,-5.45,-6.63,-6.77,0,*56
1520398902.75,34661,7.88,71468.5,-5.43,-6.51,-6.63,0,*55
1520398903.99,34662,7.88,71468.0,-5.45,-6.63,-6.73,0,*50
1520398905.21,34663,7.88,71468.0,-5.45,-6.69,-6.77,0,*5F
1520398906.46,34664,7.88,71472.3,-5.45,-6.63,-6.77,0,*52
1520398907.66,34665,7.88,71474.5,-5.43,-6.59,-6.77,0,*5C
1520398908.91,34666,7.88,71468.5,-5.45,-6.63,-6.81,0,*59
1520398910.13,34667,7.88,71474.3,-5.45,-6.69,-6.81,0,*52
1520398911.38,34668,7.88,71472.3,-5.43,-6.63,-6.63,0,*5D
1520398912.58,34669,7.88,71478.3,-5.43,-6.59,-6.77,0,*50
1520398913.8,34670,7.88,71472.0,-5.43,-6.63,-6.77,0,*51
1520398914.99,34671,7.88,71474.3,-5.43,-6.69,-6.81,0,*53
1520398916.21,34672,7.88,71474.5,-5.43,-6.63,-6.77,0,*53
1520398917.43,34673,7.88,71472.5,-5.45,-6.69,-6.89,0,*5F
1520398918.66,34674,7.88,71472.5,-5.45,-6.69,-6.81,0,*50
1520398919.88,34675,7.88,71472.5,-5.45,-6.69,-6.89,0,*59
1520398921.08,34676,7.88,71472.3,-5.43,-6.59,-6.73,0,*5A
1520398922.28,34677,7.88,71472.5,-5.43,-6.59,-6.77,0,*5F
1520398923.5,34678,7.88,71472.0,-5.45,-6.69,-6.77,0,*55
1520398924.73,34679,7.88,71474.8,-5.45,-6.77,-6.81,0,*52
1520398925.95,34680,7.88,71472.5,-5.43,-6.63,-6.85,0,*53
1520398927.17,34681,7.88,71472.8,-5.43,-6.63,-6.85,0,*52
1520398928.39,34682,7.88,71470.8,-5.43,-6.63,-6.77,0,*5C
1520398929.61,34683,7.88,71470.3,-5.45,-6.77,-6.89,0,*5F
1520398930.84,34684,7.88,71470.0,-5.45,-6.69,-6.81,0,*5F
1520398932.04,34685,7.88,71468.5,-5.43,-6.73,-6.77,0,*5A
1520398933.26,34686,7.88,71468.5,-5.45,-6.69,-6.89,0,*55
1520398934.48,34687,7.88,71470.8,-5.43,-6.63,-6.73,0,*5D
1520398935.69,34688,7.88,71468.3,-5.43,-6.63,-6.77,0,*56
1520398936.92,34689,7.88,71468.3,-5.45,-6.69,-6.81,0,*52
1520398938.14,34690,7.88,71464.3,-5.45,-6.69,-6.89,0,*52
1520398939.34,34691,7.88,71466.5,-5.43,-6.73,-6.77,0,*5F
1520398940.57,34692,7.88,71466.3,-5.45,-6.69,-6.81,0,*58
1520398941.78,34693,7.88,71466.5,-5.43,-6.63,-6.73,0,*58
1520398943.01,34694,7.88,71464.0,-5.45,-6.69,-6.81,0,*5E
1520398944.24,34695,7.88,71464.8,-5.45,-6.77,-6.89,0,*58
1520398945.43,34696,7.88,71468.3,-5.43,-6.73,-6.85,0,*55
1520398946.66,34697,7.88,71472.8,-5.43,-6.77,-6.97,0,*53
1520398947.91,34698,7.88,71468.3,-5.45,-6.77,-6.93,0,*5E
1520398949.12,34699,7.88,71472.0,-5.43,-6.77,-6.81,0,*5A
1520398950.34,34700,7.88,71468.5,-5.43,-6.63,-6.85,0,*5A
1520398951.56,34701,7.88,71468.3,-5.45,-6.77,-6.89,0,*54
1520398952.76,34702,7.88,71468.3,-5.43,-6.73,-6.77,0,*54
1520398953.98,34703,7.88,71470.3,-5.43,-6.85,-6.97,0,*52
1520398955.23,34704,7.88,71464.0,-5.45,-6.81,-7.01,0,*59
1520398956.49,34705,7.88,71468.5,-5.45,-6.81,-7.01,0,*58
1520398957.72,34706,7.88,71472.5,-5.45,-6.81,-6.89,0,*5A
1520398958.97,34707,7.88,71470.5,-5.45,-6.81,-7.01,0,*5A
1520398960.22,34708,7.88,71468.5,-5.43,-6.97,-7.01,0,*54
1520398961.5,34709,7.88,71472.3,-5.45,-6.93,-7.01,0,*57
1520398962.72,34710,7.88,71472.8,-5.45,-6.89,-6.89,0,*55
1520398963.97,34711,7.88,71468.5,-5.45,-6.77,-6.93,0,*5E
1520398965.17,34712,7.88,71470.8,-5.43,-6.77,-6.89,0,*50
1520398966.37,34713,7.88,71470.0,-5.43,-6.77,-6.89,0,*51
1520398967.62,34714,7.88,71466.3,-5.45,-6.89,-6.93,0,*5A
1520398968.84,34715,7.88,71466.0,-5.43,-6.63,-6.85,0,*5E
1520398970.07,34716,7.88,71466.8,-5.45,-6.77,-6.89,0,*52
1520398971.3,34717,7.88,71464.3,-5.45,-6.77,-6.89,0,*53
1520398972.51,34718,7.88,71470.3,-5.43,-6.63,-6.77,0,*5E
1520398973.74,34719,7.88,71468.8,-5.45,-6.77,-6.89,0,*5D
1520398974.96,34720,7.88,71470.5,-5.45,-6.69,-6.89,0,*58
1520398976.2,34721,7.88,71468.5,-5.45,-6.77,-6.81,0,*5E
1520398977.42,34722,7.88,71468.8,-5.43,-6.85,-6.97,0,*51
1520398978.64,34723,7.88,71470.3,-5.43,-6.77,-6.97,0,*5D
1520398979.9,34724,7.88,71470.3,-5.45,-6.81,-6.93,0,*51
1520398981.12,34725,7.88,71466.5,-5.43,-6.77,-6.97,0,*5B
1520398982.37,34726,7.88,71468.8,-5.45,-6.81,-7.01,0,*59
1520398983.62,34727,7.88,71468.0,-5.45,-6.89,-7.01,0,*50
1520398984.84,34728,7.88,71470.8,-5.43,-6.85,-6.97,0,*5B
1520398986.09,34729,7.88,71474.0,-5.45,-6.89,-7.05,0,*5A
1520398987.33,34730,7.88,71470.3,-5.45,-6.89,-7.05,0,*52
1520398988.6,34731,7.88,71468.0,-5.45,-6.93,-7.05,0,*58
1520398989.82,34732,7.88,71468.0,-5.43,-6.85,-7.01,0,*5E
1520398991.06,34733,7.88,71468.5,-5.45,-6.89,-7.05,0,*51
1520398992.31,34734,7.88,71470.8,-5.45,-6.81,-7.05,0,*5E
1520398993.56,34735,7.88,71468.0,-5.45,-6.89,-7.01,0,*53
1520398994.81,34736,7.88,71470.8,-5.45,-6.81,-7.01,0,*58
1520398996.07,34737,7.88,71468.3,-5.45,-6.81,-7.01,0,*59
1520398997.27,34738,7.88,71474.8,-5.43,-6.77,-6.89,0,*58
1520398998.52,34739,7.88,71470.5,-5.45,-6.77,-6.93,0,*54
1520398999.72,34740,7.88,71468.0,-5.43,-6.73,-6.77,0,*52
1520399000.93,34741,7.88,71470.3,-5.43,-6.63,-6.85,0,*5F
1520399002.16,34742,7.88,71470.0,-5.45,-6.77,-6.89,0,*53
1520399003.39,34743,7.88,71468.3,-5.45,-6.77,-6.81,0,*5A
1520399004.62,34744,7.88,71470.8,-5.45,-6.77,-6.89,0,*55
1520399005.86,34745,7.88,71468.8,-5.45,-6.77,-6.81,0,*5C
1520399007.08,34746,7.88,71472.3,-5.45,-6.69,-6.89,0,*58
1520399008.31,34747,7.88,71472.3,-5.45,-6.81,-6.89,0,*5F
1520399009.5,34748,7.88,71468.8,-5.43,-6.85,-6.89,0,*52
1520399010.73,34749,7.88,71468.3,-5.43,-6.77,-6.97,0,*51
1520399011.92,34750,7.88,71468.5,-5.43,-6.85,-6.85,0,*57
1520399013.12,34751,7.88,71470.8,-5.43,-6.85,-6.89,0,*5A
1520399014.36,34752,7.88,71472.0,-5.45,-6.81,-6.81,0,*53
1520399015.58,34753,7.88,71468.3,-5.45,-6.89,-6.89,0,*52
1520399016.82,34754,7.88,71468.8,-5.45,-6.81,-6.81,0,*55
1520399018.04,34755,7.88,71470.8,-5.45,-6.81,-6.89,0,*5C
1520399019.24,34756,7.88,71470.0,-5.43,-6.77,-6.77,0,*51
1520399020.47,34757,7.88,71468.0,-5.45,-6.81,-6.77,0,*5F
1520399021.69,34758,7.88,71470.8,-5.45,-6.69,-6.69,0,*59
1520399022.91,34759,7.88,71464.5,-5.45,-6.69,-6.69,0,*58
1520399024.13,34760,7.88,71468.0,-5.45,-6.77,-6.69,0,*5D
1520399025.35,34761,7.88,71468.5,-5.45,-6.69,-6.77,0,*5C
1520399026.61,34762,7.88,71470.5,-5.45,-6.77,-6.63,0,*55
1520399027.83,34763,7.88,71470.3,-5.45,-6.77,-6.69,0,*5E
1520399029.05,34764,7.88,71468.3,-5.45,-6.69,-6.77,0,*59
1520399030.27,34765,7.88,71470.8,-5.45,-6.69,-6.77,0,*58
1520399031.49,34766,7.88,71468.5,-5.45,-6.69,-6.69,0,*54
1520399032.68,34767,7.88,71468.5,-5.43,-6.73,-6.69,0,*58
1520399033.9,34768,7.88,71470.8,-5.45,-6.69,-6.69,0,*5A
1520399035.12,34769,7.88,71470.5,-5.43,-6.73,-6.63,0,*5C
1520399036.36,34770,7.88,71474.0,-5.43,-6.63,-6.63,0,*55
1520399037.56,34771,7.88,71474.0,-5.43,-6.73,-6.59,0,*5C
1520399038.79,34772,7.88,71470.3,-5.45,-6.77,-6.69,0,*5E
1520399040.04,34773,7.88,71474.0,-5.45,-6.77,-6.63,0,*55
1520399041.29,34774,7.88,71472.8,-5.45,-6.69,-6.63,0,*5D
1520399042.54,34775,7.88,71472.8,-5.45,-6.63,-6.59,0,*5F
1520399043.75,34776,7.88,71470.8,-5.45,-6.69,-6.69,0,*55
1520399044.98,34777,7.88,71472.8,-5.45,-6.77,-6.77,0,*54
1520399046.2,34778,7.88,71470.3,-5.45,-6.69,-6.69,0,*5B
1520399047.42,34779,7.88,71468.8,-5.45,-6.77,-6.69,0,*55
1520399048.65,34780,7.88,71470.8,-5.45,-6.77,-6.77,0,*5C
1520399049.88,34781,7.88,71472.5,-5.45,-6.77,-6.77,0,*5D
1520399051.1,34782,7.88,71472.8,-5.43,-6.77,-6.63,0,*5D
1520399052.3,34783,7.88,71474.5,-5.43,-6.73,-6.73,0,*59
1520399053.5,34784,7.88,71472.3,-5.43,-6.77,-6.85,0,*53
1520399054.72,34785,7.88,71474.3,-5.45,-6.89,-6.89,0,*59
1520399055.96,34786,7.88,71474.5,-5.45,-6.89,-6.81,0,*52
1520399057.15,34787,7.88,71474.3,-5.43,-6.85,-6.85,0,*5D
1520399058.38,34788,7.88,71474.0,-5.45,-6.89,-6.77,0,*55
1520399059.61,34789,7.88,71470.8,-5.45,-6.81,-6.89,0,*5D
1520399060.83,34790,7.88,71472.8,-5.45,-6.89,-6.89,0,*5D
1520399062.07,34791,7.88,71472.3,-5.45,-6.81,-6.81,0,*5C
1520399063.3,34792,7.88,71468.5,-5.45,-6.81,-6.81,0,*5F
1520399064.53,34793,7.88,71472.0,-5.45,-6.81,-6.81,0,*5E
1520399065.73,34794,7.88,71472.8,-5.43,-6.85,-6.73,0,*56
1520399066.96,34795,7.88,71470.3,-5.43,-6.93,-6.85,0,*59
1520399068.23,34796,7.88,71468.8,-5.45,-7.01,-6.93,0,*51
1520399069.46,34797,7.88,71472.3,-5.43,-6.97,-6.89,0,*53
1520399070.72,34798,7.88,71474.3,-5.45,-6.93,-6.81,0,*56
1520399071.97,34799,7.88,71474.3,-5.45,-6.93,-6.89,0,*5F
1520399073.2,34800,7.88,71472.5,-5.45,-6.89,-6.81,0,*53
1520399074.42,34801,7.88,71472.3,-5.45,-6.89,-6.89,0,*5A
1520399075.62,34802,7.88,71474.5,-5.43,-6.85,-6.77,0,*52
1520399076.82,34803,7.88,71472.8,-5.43,-6.85,-6.85,0,*5E
1520399078.02,34804,7.88,71472.3,-5.43,-6.85,-6.85,0,*59
1520399079.21,34805,7.88,71468.8,-5.43,-6.89,-6.85,0,*54
1520399080.47,34806,7.88,71468.3,-5.45,-6.93,-6.89,0,*56
1520399081.66,34807,7.88,71474.3,-5.43,-6.89,-6.85,0,*56
1520399082.89,34808,7.88,71470.8,-5.43,-6.97,-6.89,0,*5A
1520399084.16,34809,7.88,71476.0,-5.45,-7.01,-7.01,0,*52
1520399085.44,34810,7.88,71474.3,-5.45,-7.01,-6.93,0,*50
1520399086.63,34811,7.88,71472.3,-5.43,-6.89,-6.85,0,*51
1520399087.91,34812,7.88,71472.0,-5.45,-7.01,-6.93,0,*52
1520399089.13,34813,7.88,71472.8,-5.43,-6.97,-6.89,0,*50
1520399090.36,34814,7.88,71468.3,-5.43,-6.97,-6.89,0,*57
1520399091.64,34815,7.88,71466.5,-5.45,-6.93,-6.93,0,*5F
1520399092.92,34816,7.88,71470.8,-5.45,-6.93,-6.93,0,*5C
1520399094.11,34817,7.88,71468.0,-5.43,-6.89,-6.89,0,*5B
1520399095.36,34818,7.88,71468.5,-5.45,-7.01,-6.89,0,*53
1520399096.56,34819,7.88,71470.3,-5.43,-6.89,-6.77,0,*54
1520399097.82,34820,7.88,71468.0,-5.45,-6.93,-6.81,0,*5A
1520399099.07,34821,7.88,71470.5,-5.45,-6.93,-6.89,0,*53
1520399100.33,34822,7.88,71474.8,-5.45,-6.93,-6.89,0,*50
1520399101.55,34823,7.88,71470.5,-5.45,-6.89,-6.89,0,*5A
1520399102.78,34824,7.88,71468.5,-5.45,-6.89,-6.89,0,*5D
1520399104.01,34825,7.88,71470.3,-5.45,-6.89,-6.81,0,*54
1520399105.24,34826,7.88,71472.3,-5.45,-6.89,-6.81,0,*57
1520399106.44,34827,7.88,71468.5,-5.43,-6.77,-6.85,0,*55
1520399107.66,34828,7.88,71472.5,-5.45,-6.89,-6.89,0,*51
1520399108.86,34829,7.88,71468.3,-5.43,-6.77,-6.85,0,*5B
1520399110.09,34830,7.88,71472.3,-5.45,-6.89,-6.81,0,*50
1520399111.29,34831,7.88,71470.8,-5.43,-6.85,-6.85,0,*5F
1520399112.49,34832,7.88,71472.8,-5.43,-6.85,-6.85,0,*5C
1520399113.68,34833,7.88,71468.3,-5.43,-6.85,-6.85,0,*5D
1520399114.88,34834,7.88,71466.5,-5.43,-6.77,-6.89,0,*5B
1520399116.08,34835,7.88,71470.8,-5.43,-6.77,-6.85,0,*56
1520399117.29,34836,7.88,71468.8,-5.43,-6.77,-6.85,0,*55
1520399118.49,34837,7.88,71468.8,-5.43,-6.77,-6.89,0,*58
1520399119.73,34838,7.88,71472.0,-5.45,-6.89,-7.01,0,*51
1520399120.96,34839,7.88,71474.0,-5.43,-6.89,-6.93,0,*5C
1520399122.16,34840,7.88,71470.0,-5.43,-6.77,-6.85,0,*54
1520399123.41,34841,7.88,71468.8,-5.45,-6.81,-6.93,0,*5D
1520399124.66,34842,7.88,71468.0,-5.45,-6.89,-7.01,0,*5C
1520399125.86,34843,7.88,71466.5,-5.43,-6.77,-6.89,0,*5B
1520399127.11,34844,7.88,71470.3,-5.45,-6.81,-6.93,0,*58
1520399128.37,34845,7.88,71470.5,-5.45,-6.81,-6.93,0,*59
1520399129.62,34846,7.88,71474.0,-5.45,-6.81,-6.93,0,*5A
1520399130.82,34847,7.88,71470.0,-5.43,-6.77,-6.89,0,*5F
1520399132.04,34848,7.88,71472.5,-5.43,-6.85,-6.97,0,*52
1520399133.32,34849,7.88,71468.0,-5.45,-6.93,-7.01,0,*5C
1520399134.54,34850,7.88,71466.3,-5.43,-6.85,-6.97,0,*5B
1520399135.76,34851,7.88,71468.0,-5.43,-6.85,-6.97,0,*5A
1520399136.98,34852,7.88,71474.3,-5.43,-6.89,-7.01,0,*5B
1520399138.21,34853,7.88,71472.0,-5.43,-6.97,-7.11,0,*54
1520399139.47,34854,7.88,71470.5,-5.45,-6.93,-7.15,0,*55
1520399140.7,34855,7.88,71468.5,-5.43,-6.97,-7.19,0,*5A
1520399141.92,34856,7.88,71470.3,-5.43,-6.97,-7.19,0,*59
1520399143.17,34857,7.88,71468.0,-5.43,-6.97,-7.27,0,*55
1520399144.43,34858,7.88,71470.8,-5.43,-6.97,-7.27,0,*5A
1520399145.68,34859,7.88,71468.8,-5.45,-7.01,-7.23,0,*57
1520399146.91,34860,7.88,71468.3,-5.43,-6.97,-7.19,0,*5C
1520399148.16,34861,7.88,71468.5,-5.45,-7.01,-7.23,0,*5C
1520399149.39,34862,7.88,71470.5,-5.45,-6.89,-7.23,0,*5E
1520399150.64,34863,7.88,71472.5,-5.43,-7.01,-7.27,0,*5C
1520399151.89,34864,7.88,71468.3,-5.43,-7.01,-7.27,0,*5B
1520399153.12,34865,7.88,71468.3,-5.43,-7.11,-7.31,0,*5C
1520399154.38,34866,7.88,71466.5,-5.45,-7.19,-7.43,0,*54
1520399155.6,34867,7.88,71466.3,-5.43,-7.11,-7.39,0,*56
1520399156.83,34868,7.88,71468.5,-5.43,-7.11,-7.39,0,*59
1520399158.06,34869,7.88,71460.3,-5.43,-7.11,-7.39,0,*58
1520399159.29,34870,7.88,71464.0,-5.43,-7.19,-7.43,0,*55
1520399160.52,34871,7.88,71468.3,-5.43,-7.15,-7.39,0,*55
1520399161.74,34872,7.88,71468.3,-5.43,-7.19,-7.39,0,*5A
1520399162.97,34873,7.88,71466.8,-5.45,-7.23,-7.49,0,*53
1520399164.22,34874,7.88,71466.5,-5.43,-7.27,-7.43,0,*5C
1520399165.44,34875,7.88,71468.0,-5.45,-7.23,-7.49,0,*55
1520399166.67,34876,7.88,71470.3,-5.43,-7.19,-7.39,0,*5E
1520399167.9,34877,7.88,71464.8,-5.43,-7.19,-7.39,0,*5F
1520399169.15,34878,7.88,71468.3,-5.45,-7.31,-7.49,0,*5B
1520399170.36,34879,7.88,71466.8,-5.43,-7.27,-7.53,0,*50
1520399171.61,34880,7.88,71470.3,-5.43,-7.31,-7.57,0,*55
1520399172.85,34881,7.88,71474.3,-5.43,-7.39,-7.65,0,*5D
1520399174.1,34882,7.88,71474.3,-5.43,-7.43,-7.73,0,*54
1520399175.35,34883,7.88,71476.3,-5.43,-7.39,-7.65,0,*5F
1520399176.62,34884,7.88,71470.8,-5.45,-7.43,-7.69,0,*5F
1520399177.9,34885,7.88,71472.5,-5.45,-7.43,-7.69,0,*5E
1520399179.14,34886,7.88,71472.3,-5.45,-7.49,-7.69,0,*57
1520399180.39,34887,7.88,71474.0,-5.43,-7.43,-7.69,0,*5A
1520399181.63,34888,7.88,71472.8,-5.45,-7.49,-7.69,0,*59
1520399182.88,34889,7.88,71474.5,-5.45,-7.49,-7.73,0,*53
1520399184.13,34890,7.88,71474.3,-5.43,-7.43,-7.69,0,*5C
1520399185.38,34891,7.88,71474.0,-5.43,-7.43,-7.65,0,*51
1520399186.62,34892,7.88,71472.3,-5.43,-7.39,-7.65,0,*5F
1520399187.87,34893,7.88,71470.0,-5.43,-7.43,-7.69,0,*5F
1520399189.09,34894,7.88,71470.3,-5.43,-7.53,-7.77,0,*56
1520399190.37,34895,7.88,71470.5,-5.45,-7.57,-7.77,0,*55
1520399191.63,34896,7.88,71468.8,-5.45,-7.57,-7.87,0,*59
1520399192.83,34897,7.88,71468.8,-5.43,-7.53,-7.83,0,*5E
1520399194.09,34898,7.88,71470.5,-5.45,-7.57,-7.87,0,*57
1520399195.35,34899,7.88,71470.5,-5.45,-7.61,-7.83,0,*57
1520399196.6,34900,7.88,71472.0,-5.45,-7.61,-7.83,0,*56
1520399197.86,34901,7.88,71472.3,-5.45,-7.61,-7.83,0,*57
1520399199.11,34902,7.88,71470.8,-5.45,-7.61,-7.87,0,*50
1520399200.37,34903,7.88,71472.0,-5.45,-7.73,-7.83,0,*56
1520399201.62,34904,7.88,71474.8,-5.45,-7.69,-7.83,0,*5A
1520399202.9,34905,7.88,71470.0,-5.45,-7.57,-7.69,0,*52
1520399204.18,34906,7.88,71474.3,-5.45,-7.61,-7.73,0,*5F
1520399205.43,34907,7.88,71470.8,-5.43,-7.57,-7.57,0,*5B
1520399206.66,34908,7.88,71472.8,-5.43,-7.53,-7.57,0,*50
1520399207.94,34909,7.88,71474.8,-5.45,-7.57,-7.61,0,*56
1520399209.2,34910,7.88,71474.3,-5.43,-7.57,-7.57,0,*5D
1520399210.42,34911,7.88,71478.0,-5.43,-7.53,-7.57,0,*58
1520399211.7,34912,7.88,71474.5,-5.45,-7.57,-7.57,0,*59
1520399212.92,34913,7.88,71472.0,-5.43,-7.61,-7.53,0,*5F
1520399214.18,34914,7.88,71474.0,-5.45,-7.57,-7.49,0,*50
1520399215.4,34915,7.88,71472.0,-5.43,-7.53,-7.43,0,*59
1520399216.66,34916,7.88,71476.5,-5.45,-7.57,-7.49,0,*52
1520399217.91,34917,7.88,71476.5,-5.43,-7.61,-7.61,0,*5A
1520399219.19,34918,7.88,71476.8,-5.45,-7.57,-7.57,0,*53
1520399220.48,34919,7.88,71476.3,-5.45,-7.57,-7.43,0,*57
1520399221.7,34920,7.88,71468.5,-5.43,-7.53,-7.43,0,*5F
1520399222.96,34921,7.88,71468.0,-5.45,-7.49,-7.43,0,*53
1520399224.2,34922,7.88,71468.5,-5.43,-7.43,-7.39,0,*51
1520399225.4,34923,7.88,71464.5,-5.43,-7.49,-7.49,0,*5D
1520399226.68,34924,7.88,71464.5,-5.45,-7.43,-7.35,0,*5D
1520399227.92,34925,7.88,71464.8,-5.43,-7.39,-7.39,0,*5B
1520399229.16,34926,7.88,71466.5,-5.43,-7.39,-7.39,0,*58
1520399230.44,34927,7.88,71462.3,-5.45,-7.35,-7.35,0,*5F
1520399231.68,34928,7.88,71466.0,-5.43,-7.31,-7.31,0,*56
1520399232.93,34929,7.88,71466.0,-5.43,-7.27,-7.27,0,*57
1520399234.2,34930,7.88,71464.8,-5.45,-7.31,-7.31,0,*59
1520399235.45,34931,7.88,71464.3,-5.43,-7.27,-7.31,0,*59
1520399236.69,34932,7.88,71466.8,-5.43,-7.27,-7.31,0,*5A
1520399237.95,34933,7.88,71468.3,-5.45,-7.23,-7.35,0,*5D
1520399239.17,34934,7.88,71468.0,-5.43,-7.19,-7.31,0,*51
1520399240.42,34935,7.88,71468.3,-5.45,-7.31,-7.49,0,*53
1520399241.69,34936,7.88,71472.5,-5.45,-7.31,-7.35,0,*5B
1520399242.92,34937,7.88,71472.0,-5.43,-7.19,-7.39,0,*5A
1520399244.15,34938,7.88,71472.3,-5.43,-7.19,-7.31,0,*5D
1520399245.4,34939,7.88,71472.8,-5.45,-7.23,-7.35,0,*57
1520399246.63,34940,7.88,71474.3,-5.43,-7.15,-7.31,0,*5E
1520399247.85,34941,7.88,71468.3,-5.45,-7.23,-7.49,0,*53
1520399249.1,34942,7.88,71472.5,-5.45,-7.31,-7.49,0,*53
1520399250.37,34943,7.88,71474.5,-5.45,-7.31,-7.43,0,*58
1520399251.63,34944,7.88,71470.8,-5.43,-7.35,-7.43,0,*5D
1520399252.85,34945,7.88,71474.3,-5.43,-7.15,-7.39,0,*53
1520399254.08,34946,7.88,71470.0,-5.43,-7.15,-7.39,0,*50
1520399255.33,34947,7.88,71468.5,-5.45,-7.19,-7.35,0,*57
1520399256.56,34948,7.88,71472.3,-5.43,-7.19,-7.31,0,*5A
1520399257.79,34949,7.88,71472.3,-5.43,-7.19,-7.39,0,*53
1520399259.01,34950,7.88,71472.0,-5.43,-7.15,-7.27,0,*58
1520399260.26,34951,7.88,71474.0,-5.43,-7.01,-7.27,0,*5C
1520399261.49,34952,7.88,71468.8,-5.43,-7.19,-7.27,0,*56
1520399262.69,34953,7.88,71472.3,-5.43,-7.15,-7.15,0,*5A
1520399263.89,34954,7.88,71474.3,-5.43,-7.15,-7.19,0,*51
1520399265.12,34955,7.88,71474.3,-5.43,-7.01,-7.19,0,*55
1520399266.34,34956,7.88,71468.5,-5.43,-7.01,-7.19,0,*56
1520399267.57,34957,7.88,71468.5,-5.43,-7.01,-7.15,0,*5B
1520399268.82,34958,7.88,71468.5,-5.41,-7.01,-7.15,0,*56
1520399270.04,34959,7.88,71472.3,-5.43,-7.01,-7.15,0,*55
1520399271.29,34960,7.88,71468.3,-5.45,-7.05,-7.19,0,*51
1520399272.54,34961,7.88,71470.3,-5.45,-7.05,-7.19,0,*50
1520399273.77,34962,7.88,71470.5,-5.43,-7.01,-7.15,0,*5D
1520399274.99,34963,7.88,71472.5,-5.43,-7.01,-7.15,0,*5C
1520399276.24,34964,7.88,71474.5,-5.45,-7.01,-7.19,0,*51
1520399277.49,34965,7.88,71474.3,-5.45,-7.05,-7.19,0,*54
1520399278.7,34966,7.88,71470.5,-5.43,-7.11,-7.15,0,*58
1520399279.92,34967,7.88,71472.3,-5.43,-7.01,-7.15,0,*58
1520399281.15,34968,7.88,71470.5,-5.43,-7.01,-7.11,0,*53
1520399282.38,34969,7.88,71472.3,-5.43,-7.01,-7.11,0,*52
1520399283.61,34970,7.88,71470.0,-5.43,-7.01,-7.11,0,*5A
1520399284.86,34971,7.88,71468.3,-5.45,-7.05,-7.15,0,*5D
1520399286.11,34972,7.88,71468.8,-5.45,-7.05,-7.19,0,*52
1520399287.36,34973,7.88,71472.8,-5.45,-7.05,-7.15,0,*5F
1520399288.59,34974,7.88,71474.8,-5.43,-7.01,-7.11,0,*5E
1520399289.84,34975,7.88,71470.0,-5.41,-7.01,-7.19,0,*55
1520399291.07,34976,7.88,71470.8,-5.43,-7.01,-7.11,0,*5C
1520399292.32,34977,7.88,71470.3,-5.45,-7.05,-7.23,0,*5E
1520399293.55,34978,7.88,71468.5,-5.45,-7.15,-7.23,0,*50
1520399294.8,34979,7.88,71470.8,-5.45,-7.05,-7.19,0,*59
1520399296.03,34980,7.88,71470.5,-5.43,-7.01,-7.19,0,*5D
1520399297.25,34981,7.88,71472.0,-5.43,-7.01,-7.19,0,*5C
1520399298.48,34982,7.88,71474.0,-5.43,-7.11,-7.31,0,*54
1520399299.75,34983,7.88,71472.8,-5.45,-7.05,-7.31,0,*56
1520399301.0,34984,7.88,71472.3,-5.43,-7.01,-7.27,0,*54
1520399302.25,34985,7.88,71472.3,-5.45,-7.15,-7.31,0,*51
1520399303.5,34986,7.88,71472.3,-5.43,-7.01,-7.27,0,*56
1520399304.75,34987,7.88,71472.3,-5.43,-7.05,-7.31,0,*54
1520399305.98,34988,7.88,71472.5,-5.43,-7.11,-7.31,0,*5E
1520399307.23,34989,7.88,71470.8,-5.43,-7.01,-7.31,0,*5E
1520399308.48,34990,7.88,71472.5,-5.43,-7.01,-7.31,0,*56
1520399309.7,34991,7.88,71468.3,-5.43,-7.15,-7.35,0,*56
1520399310.93,34992,7.88,71474.0,-5.43,-7.11,-7.31,0,*55
1520399312.18,34993,7.88,71474.3,-5.43,-7.01,-7.27,0,*52
1520399313.43,34994,7.88,71472.0,-5.43,-7.01,-7.27,0,*55
1520399314.63,34995,7.88,71468.8,-5.43,-7.15,-7.23,0,*55
1520399315.88,34996,7.88,71472.5,-5.45,-7.15,-7.31,0,*53
1520399317.11,34997,7.88,71470.3,-5.43,-7.11,-7.27,0,*57
1520399318.36,34998,7.88,71466.0,-5.45,-7.15,-7.35,0,*59
1520399319.59,34999,7.88,71468.8,-5.43,-7.15,-7.27,0,*5D